Year,Month,Day,Hour,Minute,Value (Times are PST for temperature in C)
2017,12,10,00,00,1.20
2017,12,10,00,01,1.20
2017,12,10,00,02,1.20
2017,12,10,00,03,1.20
2017,12,10,00,04,1.20
2017,12,10,00,05,1.20
2017,12,10,00,06,1.20
2017,12,10,00,07,1.20
2017,12,10,00,08,1.10
2017,12,10,00,09,1.10
2017,12,10,00,10,1.20
2017,12,10,00,11,1.20
2017,12,10,00,12,1.20
2017,12,10,00,13,1.20
2017,12,10,00,14,1.20
2017,12,10,00,15,1.20
2017,12,10,00,16,1.20
2017,12,10,00,17,1.20
2017,12,10,00,18,1.20
2017,12,10,00,19,1.20
2017,12,10,00,20,1.20
2017,12,10,00,21,1.30
2017,12,10,00,22,1.30
2017,12,10,00,23,1.30
2017,12,10,00,24,1.30
2017,12,10,00,25,1.30
2017,12,10,00,26,1.30
2017,12,10,00,27,1.30
2017,12,10,00,28,1.30
2017,12,10,00,29,1.30
2017,12,10,00,30,1.40
2017,12,10,00,31,1.40
2017,12,10,00,32,1.40
2017,12,10,00,33,1.40
2017,12,10,00,34,1.40
2017,12,10,00,35,1.50
2017,12,10,00,36,1.50
2017,12,10,00,37,1.50
2017,12,10,00,38,1.50
2017,12,10,00,39,1.50
2017,12,10,00,40,1.60
2017,12,10,00,41,1.60
2017,12,10,00,42,1.60
2017,12,10,00,43,1.60
2017,12,10,00,44,1.60
2017,12,10,00,45,1.60
2017,12,10,00,46,1.60
2017,12,10,00,47,1.60
2017,12,10,00,48,1.60
2017,12,10,00,49,1.70
2017,12,10,00,50,1.60
2017,12,10,00,51,1.60
2017,12,10,00,52,1.60
2017,12,10,00,53,1.60
2017,12,10,00,54,1.60
2017,12,10,00,55,1.60
2017,12,10,00,56,1.60
2017,12,10,00,57,1.60
2017,12,10,00,58,1.60
2017,12,10,00,59,1.60
2017,12,10,01,00,1.60
2017,12,10,01,01,1.70
2017,12,10,01,02,1.70
2017,12,10,01,03,1.70
2017,12,10,01,04,1.70
2017,12,10,01,05,1.70
2017,12,10,01,06,1.70
2017,12,10,01,07,1.70
2017,12,10,01,08,1.70
2017,12,10,01,09,1.70
2017,12,10,01,10,1.70
2017,12,10,01,11,1.70
2017,12,10,01,12,1.70
2017,12,10,01,13,1.70
2017,12,10,01,14,1.70
2017,12,10,01,15,1.70
2017,12,10,01,16,1.70
2017,12,10,01,17,1.70
2017,12,10,01,18,1.70
2017,12,10,01,19,1.70
2017,12,10,01,20,1.80
2017,12,10,01,21,1.80
2017,12,10,01,22,1.80
2017,12,10,01,23,1.80
2017,12,10,01,24,1.80
2017,12,10,01,25,1.80
2017,12,10,01,26,1.80
2017,12,10,01,27,1.80
2017,12,10,01,28,1.80
2017,12,10,01,29,1.70
2017,12,10,01,30,1.70
2017,12,10,01,31,1.70
2017,12,10,01,32,1.70
2017,12,10,01,33,1.70
2017,12,10,01,34,1.70
2017,12,10,01,35,1.70
2017,12,10,01,36,1.70
2017,12,10,01,37,1.70
2017,12,10,01,38,1.70
2017,12,10,01,39,1.70
2017,12,10,01,40,1.70
2017,12,10,01,41,1.70
2017,12,10,01,42,1.70
2017,12,10,01,43,1.70
2017,12,10,01,44,1.70
2017,12,10,01,45,1.70
2017,12,10,01,46,1.70
2017,12,10,01,47,1.70
2017,12,10,01,48,1.70
2017,12,10,01,49,1.70
2017,12,10,01,50,1.70
2017,12,10,01,51,1.70
2017,12,10,01,52,1.70
2017,12,10,01,53,1.70
2017,12,10,01,54,1.70
2017,12,10,01,55,1.70
2017,12,10,01,56,1.60
2017,12,10,01,57,1.60
2017,12,10,01,58,1.60
2017,12,10,01,59,1.60
2017,12,10,02,00,1.60
2017,12,10,02,01,1.60
2017,12,10,02,02,1.60
2017,12,10,02,03,1.60
2017,12,10,02,04,1.60
2017,12,10,02,05,1.60
2017,12,10,02,06,1.60
2017,12,10,02,07,1.60
2017,12,10,02,08,1.60
2017,12,10,02,09,1.60
2017,12,10,02,10,1.60
2017,12,10,02,11,1.60
2017,12,10,02,12,1.50
2017,12,10,02,13,1.50
2017,12,10,02,14,1.50
2017,12,10,02,15,1.50
2017,12,10,02,16,1.50
2017,12,10,02,17,1.50
2017,12,10,02,18,1.50
2017,12,10,02,19,1.50
2017,12,10,02,20,1.50
2017,12,10,02,21,1.50
2017,12,10,02,22,1.50
2017,12,10,02,23,1.60
2017,12,10,02,24,1.60
2017,12,10,02,25,1.60
2017,12,10,02,26,1.60
2017,12,10,02,27,1.60
2017,12,10,02,28,1.60
2017,12,10,02,29,1.60
2017,12,10,02,30,1.60
2017,12,10,02,31,1.60
2017,12,10,02,32,1.70
2017,12,10,02,33,1.70
2017,12,10,02,34,1.70
2017,12,10,02,35,1.70
2017,12,10,02,36,1.70
2017,12,10,02,37,1.70
2017,12,10,02,38,1.70
2017,12,10,02,39,1.70
2017,12,10,02,40,1.70
2017,12,10,02,41,1.80
2017,12,10,02,42,1.80
2017,12,10,02,43,1.80
2017,12,10,02,44,1.80
2017,12,10,02,45,1.80
2017,12,10,02,46,1.90
2017,12,10,02,47,1.90
2017,12,10,02,48,2.00
2017,12,10,02,49,2.00
2017,12,10,02,50,2.00
2017,12,10,02,51,2.00
2017,12,10,02,52,2.10
2017,12,10,02,53,2.10
2017,12,10,02,54,2.10
2017,12,10,02,55,2.10
2017,12,10,02,56,2.10
2017,12,10,02,57,2.10
2017,12,10,02,58,2.20
2017,12,10,02,59,2.20
2017,12,10,03,00,2.20
2017,12,10,03,01,2.20
2017,12,10,03,02,2.20
2017,12,10,03,03,2.20
2017,12,10,03,04,2.20
2017,12,10,03,05,2.20
2017,12,10,03,06,2.20
2017,12,10,03,07,2.20
2017,12,10,03,08,2.30
2017,12,10,03,09,2.30
2017,12,10,03,10,2.30
2017,12,10,03,11,2.30
2017,12,10,03,12,2.30
2017,12,10,03,13,2.40
2017,12,10,03,14,2.40
2017,12,10,03,15,2.40
2017,12,10,03,16,2.40
2017,12,10,03,17,2.40
2017,12,10,03,18,2.40
2017,12,10,03,19,2.40
2017,12,10,03,20,2.40
2017,12,10,03,21,2.40
2017,12,10,03,22,2.50
2017,12,10,03,23,2.50
2017,12,10,03,24,2.50
2017,12,10,03,25,2.50
2017,12,10,03,26,2.50
2017,12,10,03,27,2.50
2017,12,10,03,28,2.50
2017,12,10,03,29,2.50
2017,12,10,03,30,2.50
2017,12,10,03,31,2.50
2017,12,10,03,32,2.50
2017,12,10,03,33,2.50
2017,12,10,03,34,2.50
2017,12,10,03,35,2.40
2017,12,10,03,36,2.40
2017,12,10,03,37,2.40
2017,12,10,03,38,2.40
2017,12,10,03,39,2.50
2017,12,10,03,40,2.50
2017,12,10,03,41,2.50
2017,12,10,03,42,2.50
2017,12,10,03,43,2.50
2017,12,10,03,44,2.50
2017,12,10,03,45,2.50
2017,12,10,03,46,2.50
2017,12,10,03,47,2.50
2017,12,10,03,48,2.50
2017,12,10,03,49,2.50
2017,12,10,03,50,2.50
2017,12,10,03,51,2.60
2017,12,10,03,52,2.60
2017,12,10,03,53,2.60
2017,12,10,03,54,2.60
2017,12,10,03,55,2.60
2017,12,10,03,56,2.70
2017,12,10,03,57,2.70
2017,12,10,03,58,2.70
2017,12,10,03,59,2.70
2017,12,10,04,00,2.70
2017,12,10,04,01,2.70
2017,12,10,04,02,2.70
2017,12,10,04,03,2.70
2017,12,10,04,04,2.70
2017,12,10,04,05,2.70
2017,12,10,04,06,2.70
2017,12,10,04,07,2.70
2017,12,10,04,08,2.70
2017,12,10,04,09,2.70
2017,12,10,04,10,2.70
2017,12,10,04,11,2.70
2017,12,10,04,12,2.70
2017,12,10,04,13,2.70
2017,12,10,04,14,2.70
2017,12,10,04,15,2.70
2017,12,10,04,16,2.70
2017,12,10,04,17,2.70
2017,12,10,04,18,2.70
2017,12,10,04,19,2.70
2017,12,10,04,20,2.70
2017,12,10,04,21,2.70
2017,12,10,04,22,2.70
2017,12,10,04,23,2.70
2017,12,10,04,24,2.70
2017,12,10,04,25,2.70
2017,12,10,04,26,2.70
2017,12,10,04,27,2.70
2017,12,10,04,28,2.70
2017,12,10,04,29,2.70
2017,12,10,04,30,2.70
2017,12,10,04,31,2.70
2017,12,10,04,32,2.70
2017,12,10,04,33,2.70
2017,12,10,04,34,2.70
2017,12,10,04,35,2.70
2017,12,10,04,36,2.70
2017,12,10,04,37,2.70
2017,12,10,04,38,2.70
2017,12,10,04,39,2.80
2017,12,10,04,40,2.80
2017,12,10,04,41,2.80
2017,12,10,04,42,2.80
2017,12,10,04,43,2.80
2017,12,10,04,44,2.80
2017,12,10,04,45,2.80
2017,12,10,04,46,2.80
2017,12,10,04,47,2.80
2017,12,10,04,48,2.80
2017,12,10,04,49,2.80
2017,12,10,04,50,2.80
2017,12,10,04,51,2.80
2017,12,10,04,52,2.80
2017,12,10,04,53,2.70
2017,12,10,04,54,2.70
2017,12,10,04,55,2.70
2017,12,10,04,56,2.70
2017,12,10,04,57,2.70
2017,12,10,04,58,2.70
2017,12,10,04,59,2.70
2017,12,10,05,00,2.70
2017,12,10,05,01,2.60
2017,12,10,05,02,2.60
2017,12,10,05,03,2.50
2017,12,10,05,04,2.50
2017,12,10,05,05,2.50
2017,12,10,05,06,2.50
2017,12,10,05,07,2.50
2017,12,10,05,08,2.50
2017,12,10,05,09,2.50
2017,12,10,05,10,2.50
2017,12,10,05,11,2.50
2017,12,10,05,12,2.60
2017,12,10,05,13,2.60
2017,12,10,05,14,2.60
2017,12,10,05,15,2.60
2017,12,10,05,16,2.60
2017,12,10,05,17,2.70
2017,12,10,05,18,2.70
2017,12,10,05,19,2.70
2017,12,10,05,20,2.70
2017,12,10,05,21,2.80
2017,12,10,05,22,2.80
2017,12,10,05,23,2.90
2017,12,10,05,24,2.90
2017,12,10,05,25,2.90
2017,12,10,05,26,2.90
2017,12,10,05,27,2.90
2017,12,10,05,28,2.90
2017,12,10,05,29,2.90
2017,12,10,05,30,2.90
2017,12,10,05,31,2.90
2017,12,10,05,32,2.90
2017,12,10,05,33,2.90
2017,12,10,05,34,2.90
2017,12,10,05,35,2.90
2017,12,10,05,36,2.90
2017,12,10,05,37,2.90
2017,12,10,05,38,3.00
2017,12,10,05,39,3.10
2017,12,10,05,40,3.10
2017,12,10,05,41,3.10
2017,12,10,05,42,3.10
2017,12,10,05,43,3.20
2017,12,10,05,44,3.20
2017,12,10,05,45,3.20
2017,12,10,05,46,3.30
2017,12,10,05,47,3.30
2017,12,10,05,48,3.40
2017,12,10,05,49,3.40
2017,12,10,05,50,3.40
2017,12,10,05,51,3.50
2017,12,10,05,52,3.50
2017,12,10,05,53,3.60
2017,12,10,05,54,3.60
2017,12,10,05,55,3.60
2017,12,10,05,56,3.70
2017,12,10,05,57,3.70
2017,12,10,05,58,3.80
2017,12,10,05,59,3.80
2017,12,10,06,00,3.80
2017,12,10,06,01,3.80
2017,12,10,06,02,3.90
2017,12,10,06,03,3.90
2017,12,10,06,04,4.00
2017,12,10,06,05,4.00
2017,12,10,06,06,4.10
2017,12,10,06,07,4.20
2017,12,10,06,08,4.20
2017,12,10,06,09,4.20
2017,12,10,06,10,4.20
2017,12,10,06,11,4.30
2017,12,10,06,12,4.30
2017,12,10,06,13,4.40
2017,12,10,06,14,4.40
2017,12,10,06,15,4.40
2017,12,10,06,16,4.40
2017,12,10,06,17,4.40
2017,12,10,06,18,4.40
2017,12,10,06,19,4.40
2017,12,10,06,20,4.40
2017,12,10,06,21,4.40
2017,12,10,06,22,4.30
2017,12,10,06,23,4.30
2017,12,10,06,24,4.30
2017,12,10,06,25,4.30
2017,12,10,06,26,4.30
2017,12,10,06,27,4.30
2017,12,10,06,28,4.30
2017,12,10,06,29,4.30
2017,12,10,06,30,4.30
2017,12,10,06,31,4.40
2017,12,10,06,32,4.40
2017,12,10,06,33,4.40
2017,12,10,06,34,4.50
2017,12,10,06,35,4.50
2017,12,10,06,36,4.50
2017,12,10,06,37,4.60
2017,12,10,06,38,4.60
2017,12,10,06,39,4.60
2017,12,10,06,40,4.60
2017,12,10,06,41,4.60
2017,12,10,06,42,4.70
2017,12,10,06,43,4.70
2017,12,10,06,44,4.70
2017,12,10,06,45,4.70
2017,12,10,06,46,4.80
2017,12,10,06,47,4.80
2017,12,10,06,48,4.80
2017,12,10,06,49,4.90
2017,12,10,06,50,4.90
2017,12,10,06,51,4.90
2017,12,10,06,52,4.90
2017,12,10,06,53,4.90
2017,12,10,06,54,4.90
2017,12,10,06,55,4.90
2017,12,10,06,56,4.90
2017,12,10,06,57,4.90
2017,12,10,06,58,4.90
2017,12,10,06,59,4.90
2017,12,10,07,00,4.90
2017,12,10,07,01,4.80
2017,12,10,07,02,4.80
2017,12,10,07,03,4.80
2017,12,10,07,04,4.80
2017,12,10,07,05,4.80
2017,12,10,07,06,4.80
2017,12,10,07,07,4.70
2017,12,10,07,08,4.70
2017,12,10,07,09,4.70
2017,12,10,07,10,4.70
2017,12,10,07,11,4.70
2017,12,10,07,12,4.70
2017,12,10,07,13,4.70
2017,12,10,07,14,4.70
2017,12,10,07,15,4.60
2017,12,10,07,16,4.60
2017,12,10,07,17,4.60
2017,12,10,07,18,4.60
2017,12,10,07,19,4.60
2017,12,10,07,20,4.60
2017,12,10,07,21,4.60
2017,12,10,07,22,4.60
2017,12,10,07,23,4.60
2017,12,10,07,24,4.60
2017,12,10,07,25,4.60
2017,12,10,07,26,4.60
2017,12,10,07,27,4.60
2017,12,10,07,28,4.60
2017,12,10,07,29,4.50
2017,12,10,07,30,4.50
2017,12,10,07,31,4.50
2017,12,10,07,32,4.50
2017,12,10,07,33,4.50
2017,12,10,07,34,4.50
2017,12,10,07,35,4.50
2017,12,10,07,36,4.50
2017,12,10,07,37,4.50
2017,12,10,07,38,4.50
2017,12,10,07,39,4.40
2017,12,10,07,40,4.40
2017,12,10,07,41,4.40
2017,12,10,07,42,4.40
2017,12,10,07,43,4.40
2017,12,10,07,44,4.40
2017,12,10,07,45,4.40
2017,12,10,07,46,4.40
2017,12,10,07,47,4.40
2017,12,10,07,48,4.40
2017,12,10,07,49,4.40
2017,12,10,07,50,4.40
2017,12,10,07,51,4.50
2017,12,10,07,52,4.50
2017,12,10,07,53,4.50
2017,12,10,07,54,4.50
2017,12,10,07,55,4.50
2017,12,10,07,56,4.50
2017,12,10,07,57,4.50
2017,12,10,07,58,4.50
2017,12,10,07,59,4.50
2017,12,10,08,00,4.50
2017,12,10,08,01,4.50
2017,12,10,08,02,4.50
2017,12,10,08,03,4.50
2017,12,10,08,04,4.50
2017,12,10,08,05,4.50
2017,12,10,08,06,4.50
2017,12,10,08,07,4.50
2017,12,10,08,08,4.60
2017,12,10,08,09,4.60
2017,12,10,08,10,4.60
2017,12,10,08,11,4.60
2017,12,10,08,12,4.60
2017,12,10,08,13,4.60
2017,12,10,08,14,4.60
2017,12,10,08,15,4.60
2017,12,10,08,16,4.60
2017,12,10,08,17,4.60
2017,12,10,08,18,4.60
2017,12,10,08,19,4.60
2017,12,10,08,20,4.60
2017,12,10,08,21,4.60
2017,12,10,08,22,4.60
2017,12,10,08,23,4.60
2017,12,10,08,24,4.60
2017,12,10,08,25,4.60
2017,12,10,08,26,4.60
2017,12,10,08,27,4.60
2017,12,10,08,28,4.60
2017,12,10,08,29,4.70
2017,12,10,08,30,4.70
2017,12,10,08,31,4.70
2017,12,10,08,32,4.80
2017,12,10,08,33,4.80
2017,12,10,08,34,4.80
2017,12,10,08,35,4.80
2017,12,10,08,36,4.90
2017,12,10,08,37,4.90
2017,12,10,08,38,4.90
2017,12,10,08,39,4.90
2017,12,10,08,40,5.00
2017,12,10,08,41,5.10
2017,12,10,08,42,5.10
2017,12,10,08,43,5.10
2017,12,10,08,44,5.10
2017,12,10,08,45,5.10
2017,12,10,08,46,5.10
2017,12,10,08,47,5.10
2017,12,10,08,48,5.10
2017,12,10,08,49,5.10
2017,12,10,08,50,5.20
2017,12,10,08,51,5.20
2017,12,10,08,52,5.20
2017,12,10,08,53,5.30
2017,12,10,08,54,5.30
2017,12,10,08,55,5.30
2017,12,10,08,56,5.30
2017,12,10,08,57,5.30
2017,12,10,08,58,5.40
2017,12,10,08,59,5.40
2017,12,10,09,00,5.40
2017,12,10,09,01,5.50
2017,12,10,09,02,5.50
2017,12,10,09,03,5.60
2017,12,10,09,04,5.60
2017,12,10,09,05,5.70
2017,12,10,09,06,5.70
2017,12,10,09,07,5.70
2017,12,10,09,08,5.70
2017,12,10,09,09,5.70
2017,12,10,09,10,5.70
2017,12,10,09,11,5.80
2017,12,10,09,12,5.80
2017,12,10,09,13,5.90
2017,12,10,09,14,5.90
2017,12,10,09,15,5.90
2017,12,10,09,16,6.00
2017,12,10,09,17,6.00
2017,12,10,09,18,6.00
2017,12,10,09,19,6.10
2017,12,10,09,20,6.10
2017,12,10,09,21,6.10
2017,12,10,09,22,6.20
2017,12,10,09,23,6.20
2017,12,10,09,24,6.20
2017,12,10,09,25,6.20
2017,12,10,09,26,6.30
2017,12,10,09,27,6.30
2017,12,10,09,28,6.30
2017,12,10,09,29,6.40
2017,12,10,09,30,6.40
2017,12,10,09,31,6.40
2017,12,10,09,32,6.40
2017,12,10,09,33,6.40
2017,12,10,09,34,6.40
2017,12,10,09,35,6.50
2017,12,10,09,36,6.60
2017,12,10,09,37,6.60
2017,12,10,09,38,6.60
2017,12,10,09,39,6.60
2017,12,10,09,40,6.60
2017,12,10,09,41,6.60
2017,12,10,09,42,6.60
2017,12,10,09,43,6.60
2017,12,10,09,44,6.60
2017,12,10,09,45,6.60
2017,12,10,09,46,6.70
2017,12,10,09,47,6.70
2017,12,10,09,48,6.70
2017,12,10,09,49,6.70
2017,12,10,09,50,6.70
2017,12,10,09,51,6.70
2017,12,10,09,52,6.80
2017,12,10,09,53,6.80
2017,12,10,09,54,6.80
2017,12,10,09,55,6.80
2017,12,10,09,56,6.80
2017,12,10,09,57,6.80
2017,12,10,09,58,6.80
2017,12,10,09,59,6.90
2017,12,10,10,00,6.90
2017,12,10,10,01,7.00
2017,12,10,10,02,7.00
2017,12,10,10,03,7.00
2017,12,10,10,04,7.10
2017,12,10,10,05,7.20
2017,12,10,10,06,7.30
2017,12,10,10,07,7.30
2017,12,10,10,08,7.30
2017,12,10,10,09,7.40
2017,12,10,10,10,7.50
2017,12,10,10,11,7.50
2017,12,10,10,12,7.50
2017,12,10,10,13,7.50
2017,12,10,10,14,7.60
2017,12,10,10,15,7.60
2017,12,10,10,16,7.60
2017,12,10,10,17,7.60
2017,12,10,10,18,7.60
2017,12,10,10,19,7.60
2017,12,10,10,20,7.70
2017,12,10,10,21,7.70
2017,12,10,10,22,7.70
2017,12,10,10,23,7.70
2017,12,10,10,24,7.80
2017,12,10,10,25,7.80
2017,12,10,10,26,7.80
2017,12,10,10,27,7.80
2017,12,10,10,28,7.80
2017,12,10,10,29,7.80
2017,12,10,10,30,7.80
2017,12,10,10,31,7.80
2017,12,10,10,32,7.80
2017,12,10,10,33,7.80
2017,12,10,10,34,7.80
2017,12,10,10,35,7.80
2017,12,10,10,36,7.80
2017,12,10,10,37,7.80
2017,12,10,10,38,7.90
2017,12,10,10,39,7.90
2017,12,10,10,40,7.90
2017,12,10,10,41,8.00
2017,12,10,10,42,8.00
2017,12,10,10,43,8.00
2017,12,10,10,44,8.10
2017,12,10,10,45,8.10
2017,12,10,10,46,8.10
2017,12,10,10,47,8.20
2017,12,10,10,48,8.20
2017,12,10,10,49,8.20
2017,12,10,10,50,8.20
2017,12,10,10,51,8.30
2017,12,10,10,52,8.30
2017,12,10,10,53,8.30
2017,12,10,10,54,8.30
2017,12,10,10,55,8.40
2017,12,10,10,56,8.40
2017,12,10,10,57,8.40
2017,12,10,10,58,8.40
2017,12,10,10,59,8.40
2017,12,10,11,00,8.50
2017,12,10,11,01,8.50
2017,12,10,11,02,8.50
2017,12,10,11,03,8.60
2017,12,10,11,04,8.60
2017,12,10,11,05,8.60
2017,12,10,11,06,8.70
2017,12,10,11,07,8.70
2017,12,10,11,08,8.70
2017,12,10,11,09,8.70
2017,12,10,11,10,8.70
2017,12,10,11,11,8.70
2017,12,10,11,12,8.70
2017,12,10,11,13,8.70
2017,12,10,11,14,8.80
2017,12,10,11,15,8.80
2017,12,10,11,16,8.80
2017,12,10,11,17,8.90
2017,12,10,11,18,8.90
2017,12,10,11,19,9.00
2017,12,10,11,20,9.00
2017,12,10,11,21,9.00
2017,12,10,11,22,9.00
2017,12,10,11,23,9.00
2017,12,10,11,24,9.00
2017,12,10,11,25,9.00
2017,12,10,11,26,9.10
2017,12,10,11,27,9.10
2017,12,10,11,28,9.10
2017,12,10,11,29,9.10
2017,12,10,11,30,9.10
2017,12,10,11,31,9.20
2017,12,10,11,32,9.20
2017,12,10,11,33,9.20
2017,12,10,11,34,9.20
2017,12,10,11,35,9.20
2017,12,10,11,36,9.20
2017,12,10,11,37,9.20
2017,12,10,11,38,9.20
2017,12,10,11,39,9.20
2017,12,10,11,40,9.20
2017,12,10,11,41,9.30
2017,12,10,11,42,9.30
2017,12,10,11,43,9.30
2017,12,10,11,44,9.30
2017,12,10,11,45,9.30
2017,12,10,11,46,9.30
2017,12,10,11,47,9.40
2017,12,10,11,48,9.40
2017,12,10,11,49,9.40
2017,12,10,11,50,9.40
2017,12,10,11,51,9.40
2017,12,10,11,52,9.40
2017,12,10,11,53,9.40
2017,12,10,11,54,9.50
2017,12,10,11,55,9.50
2017,12,10,11,56,9.50
2017,12,10,11,57,9.50
2017,12,10,11,58,9.50
2017,12,10,11,59,9.60
2017,12,10,12,00,9.60
2017,12,10,12,01,9.60
2017,12,10,12,02,9.60
2017,12,10,12,03,9.60
2017,12,10,12,04,9.60
2017,12,10,12,05,9.60
2017,12,10,12,06,9.50
2017,12,10,12,07,9.40
2017,12,10,12,08,9.40
2017,12,10,12,09,9.30
2017,12,10,12,10,9.30
2017,12,10,12,11,9.30
2017,12,10,12,12,9.30
2017,12,10,12,13,9.20
2017,12,10,12,14,9.20
2017,12,10,12,15,9.20
2017,12,10,12,16,9.20
2017,12,10,12,17,9.30
2017,12,10,12,18,9.30
2017,12,10,12,19,9.30
2017,12,10,12,20,9.40
2017,12,10,12,21,9.40
2017,12,10,12,22,9.40
2017,12,10,12,23,9.50
2017,12,10,12,24,9.50
2017,12,10,12,25,9.50
2017,12,10,12,26,9.50
2017,12,10,12,27,9.40
2017,12,10,12,28,9.40
2017,12,10,12,29,9.40
2017,12,10,12,30,9.40
2017,12,10,12,31,9.30
2017,12,10,12,32,9.30
2017,12,10,12,33,9.30
2017,12,10,12,34,9.30
2017,12,10,12,35,9.30
2017,12,10,12,36,9.30
2017,12,10,12,37,9.30
2017,12,10,12,38,9.30
2017,12,10,12,39,9.30
2017,12,10,12,40,9.30
2017,12,10,12,41,9.30
2017,12,10,12,42,9.40
2017,12,10,12,43,9.40
2017,12,10,12,44,9.40
2017,12,10,12,45,9.50
2017,12,10,12,46,9.50
2017,12,10,12,47,9.50
2017,12,10,12,48,9.60
2017,12,10,12,49,9.60
2017,12,10,12,50,9.60
2017,12,10,12,51,9.70
2017,12,10,12,52,9.70
2017,12,10,12,53,9.70
2017,12,10,12,54,9.70
2017,12,10,12,55,9.80
2017,12,10,12,56,9.80
2017,12,10,12,57,9.80
2017,12,10,12,58,9.80
2017,12,10,12,59,9.80
2017,12,10,13,00,9.80
2017,12,10,13,01,9.80
2017,12,10,13,02,9.80
2017,12,10,13,03,9.80
2017,12,10,13,04,9.80
2017,12,10,13,05,9.80
2017,12,10,13,06,9.80
2017,12,10,13,07,9.80
2017,12,10,13,08,9.80
2017,12,10,13,09,9.80
2017,12,10,13,10,9.80
2017,12,10,13,11,9.90
2017,12,10,13,12,9.90
2017,12,10,13,13,9.90
2017,12,10,13,14,9.90
2017,12,10,13,15,9.90
2017,12,10,13,16,10.00
2017,12,10,13,17,10.10
2017,12,10,13,18,10.10
2017,12,10,13,19,10.10
2017,12,10,13,20,10.00
2017,12,10,13,21,9.90
2017,12,10,13,22,9.90
2017,12,10,13,23,9.90
2017,12,10,13,24,9.80
2017,12,10,13,25,9.80
2017,12,10,13,26,9.80
2017,12,10,13,27,9.80
2017,12,10,13,28,9.80
2017,12,10,13,29,9.90
2017,12,10,13,30,9.90
2017,12,10,13,31,9.90
2017,12,10,13,32,9.90
2017,12,10,13,33,9.90
2017,12,10,13,34,9.80
2017,12,10,13,35,9.80
2017,12,10,13,36,9.80
2017,12,10,13,37,9.80
2017,12,10,13,38,9.80
2017,12,10,13,39,9.70
2017,12,10,13,40,9.70
2017,12,10,13,41,9.70
2017,12,10,13,42,9.70
2017,12,10,13,43,9.70
2017,12,10,13,44,9.70
2017,12,10,13,45,9.60
2017,12,10,13,46,9.60
2017,12,10,13,47,9.60
2017,12,10,13,48,9.60
2017,12,10,13,49,9.60
2017,12,10,13,50,9.60
2017,12,10,13,51,9.60
2017,12,10,13,52,9.60
2017,12,10,13,53,9.60
2017,12,10,13,54,9.60
2017,12,10,13,55,9.60
2017,12,10,13,56,9.60
2017,12,10,13,57,9.60
2017,12,10,13,58,9.60
2017,12,10,13,59,9.60
2017,12,10,14,00,9.70
2017,12,10,14,01,9.70
2017,12,10,14,02,9.70
2017,12,10,14,03,9.70
2017,12,10,14,04,9.70
2017,12,10,14,05,9.70
2017,12,10,14,06,9.70
2017,12,10,14,07,9.70
2017,12,10,14,08,9.70
2017,12,10,14,09,9.70
2017,12,10,14,10,9.70
2017,12,10,14,11,9.70
2017,12,10,14,12,9.80
2017,12,10,14,13,9.80
2017,12,10,14,14,9.80
2017,12,10,14,15,9.80
2017,12,10,14,16,9.80
2017,12,10,14,17,9.90
2017,12,10,14,18,9.90
2017,12,10,14,19,9.90
2017,12,10,14,20,9.90
2017,12,10,14,21,9.90
2017,12,10,14,22,9.90
2017,12,10,14,23,9.90
2017,12,10,14,24,9.90
2017,12,10,14,25,9.90
2017,12,10,14,26,9.90
2017,12,10,14,27,9.90
2017,12,10,14,28,9.90
2017,12,10,14,29,9.90
2017,12,10,14,30,9.90
2017,12,10,14,31,9.90
2017,12,10,14,32,9.90
2017,12,10,14,33,9.90
2017,12,10,14,34,9.90
2017,12,10,14,35,9.90
2017,12,10,14,36,9.90
2017,12,10,14,37,9.90
2017,12,10,14,38,9.90
2017,12,10,14,39,9.90
2017,12,10,14,40,9.90
2017,12,10,14,41,9.90
2017,12,10,14,42,9.90
2017,12,10,14,43,9.90
2017,12,10,14,44,9.90
2017,12,10,14,45,9.90
2017,12,10,14,46,9.90
2017,12,10,14,47,9.80
2017,12,10,14,48,9.80
2017,12,10,14,49,9.80
2017,12,10,14,50,9.70
2017,12,10,14,51,9.70
2017,12,10,14,52,9.70
2017,12,10,14,53,9.70
2017,12,10,14,54,9.70
2017,12,10,14,55,9.70
2017,12,10,14,56,9.60
2017,12,10,14,57,9.60
2017,12,10,14,58,9.60
2017,12,10,14,59,9.50
2017,12,10,15,00,9.50
2017,12,10,15,01,9.50
2017,12,10,15,02,9.50
2017,12,10,15,03,9.40
2017,12,10,15,04,9.40
2017,12,10,15,05,9.40
2017,12,10,15,06,9.40
2017,12,10,15,07,9.40
2017,12,10,15,08,9.30
2017,12,10,15,09,9.30
2017,12,10,15,10,9.30
2017,12,10,15,11,9.30
2017,12,10,15,12,9.30
2017,12,10,15,13,9.30
2017,12,10,15,14,9.30
2017,12,10,15,15,9.20
2017,12,10,15,16,9.20
2017,12,10,15,17,9.20
2017,12,10,15,18,9.20
2017,12,10,15,19,9.10
2017,12,10,15,20,9.10
2017,12,10,15,21,9.00
2017,12,10,15,22,9.00
2017,12,10,15,23,9.00
2017,12,10,15,24,8.90
2017,12,10,15,25,8.90
2017,12,10,15,26,8.80
2017,12,10,15,27,8.80
2017,12,10,15,28,8.70
2017,12,10,15,29,8.70
2017,12,10,15,30,8.70
2017,12,10,15,31,8.70
2017,12,10,15,32,8.70
2017,12,10,15,33,8.70
2017,12,10,15,34,8.60
2017,12,10,15,35,8.60
2017,12,10,15,36,8.60
2017,12,10,15,37,8.50
2017,12,10,15,38,8.50
2017,12,10,15,39,8.50
2017,12,10,15,40,8.40
2017,12,10,15,41,8.40
2017,12,10,15,42,8.30
2017,12,10,15,43,8.30
2017,12,10,15,44,8.30
2017,12,10,15,45,8.20
2017,12,10,15,46,8.20
2017,12,10,15,47,8.20
2017,12,10,15,48,8.20
2017,12,10,15,49,8.10
2017,12,10,15,50,8.10
2017,12,10,15,51,8.10
2017,12,10,15,52,8.00
2017,12,10,15,53,8.00
2017,12,10,15,54,7.90
2017,12,10,15,55,7.90
2017,12,10,15,56,7.80
2017,12,10,15,57,7.80
2017,12,10,15,58,7.80
2017,12,10,15,59,7.70
2017,12,10,16,00,7.70
2017,12,10,16,01,7.60
2017,12,10,16,02,7.60
2017,12,10,16,03,7.60
2017,12,10,16,04,7.50
2017,12,10,16,05,7.50
2017,12,10,16,06,7.40
2017,12,10,16,07,7.40
2017,12,10,16,08,7.30
2017,12,10,16,09,7.30
2017,12,10,16,10,7.30
2017,12,10,16,11,7.30
2017,12,10,16,12,7.20
2017,12,10,16,13,7.20
2017,12,10,16,14,7.10
2017,12,10,16,15,7.10
2017,12,10,16,16,7.00
2017,12,10,16,17,7.00
2017,12,10,16,18,7.00
2017,12,10,16,19,6.90
2017,12,10,16,20,6.90
2017,12,10,16,21,6.80
2017,12,10,16,22,6.80
2017,12,10,16,23,6.80
2017,12,10,16,24,6.80
2017,12,10,16,25,6.80
2017,12,10,16,26,6.70
2017,12,10,16,27,6.70
2017,12,10,16,28,6.70
2017,12,10,16,29,6.60
2017,12,10,16,30,6.60
2017,12,10,16,31,6.60
2017,12,10,16,32,6.60
2017,12,10,16,33,6.50
2017,12,10,16,34,6.40
2017,12,10,16,35,6.40
2017,12,10,16,36,6.40
2017,12,10,16,37,6.30
2017,12,10,16,38,6.30
2017,12,10,16,39,6.30
2017,12,10,16,40,6.20
2017,12,10,16,41,6.20
2017,12,10,16,42,6.20
2017,12,10,16,43,6.20
2017,12,10,16,44,6.20
2017,12,10,16,45,6.10
2017,12,10,16,46,6.10
2017,12,10,16,47,6.00
2017,12,10,16,48,6.00
2017,12,10,16,49,5.90
2017,12,10,16,50,5.90
2017,12,10,16,51,5.90
2017,12,10,16,52,5.80
2017,12,10,16,53,5.80
2017,12,10,16,54,5.70
2017,12,10,16,55,5.70
2017,12,10,16,56,5.70
2017,12,10,16,57,5.70
2017,12,10,16,58,5.60
2017,12,10,16,59,5.60
2017,12,10,17,00,5.50
2017,12,10,17,01,5.50
2017,12,10,17,02,5.40
2017,12,10,17,03,5.40
2017,12,10,17,04,5.40
2017,12,10,17,05,5.30
2017,12,10,17,06,5.30
2017,12,10,17,07,5.30
2017,12,10,17,08,5.30
2017,12,10,17,09,5.30
2017,12,10,17,10,5.20
2017,12,10,17,11,5.20
2017,12,10,17,12,5.10
2017,12,10,17,13,5.10
2017,12,10,17,14,5.10
2017,12,10,17,15,5.10
2017,12,10,17,16,5.10
2017,12,10,17,17,5.10
2017,12,10,17,18,5.10
2017,12,10,17,19,4.90
2017,12,10,17,20,4.90
2017,12,10,17,21,4.90
2017,12,10,17,22,4.90
2017,12,10,17,23,4.90
2017,12,10,17,24,4.90
2017,12,10,17,25,4.80
2017,12,10,17,26,4.80
2017,12,10,17,27,4.80
2017,12,10,17,28,4.80
2017,12,10,17,29,4.80
2017,12,10,17,30,4.70
2017,12,10,17,31,4.70
2017,12,10,17,32,4.60
2017,12,10,17,33,4.60
2017,12,10,17,34,4.60
2017,12,10,17,35,4.50
2017,12,10,17,36,4.50
2017,12,10,17,37,4.40
2017,12,10,17,38,4.30
2017,12,10,17,39,4.20
2017,12,10,17,40,4.20
2017,12,10,17,41,4.20
2017,12,10,17,42,4.10
2017,12,10,17,43,4.10
2017,12,10,17,44,4.00
2017,12,10,17,45,4.00
2017,12,10,17,46,4.00
2017,12,10,17,47,4.00
2017,12,10,17,48,4.00
2017,12,10,17,49,4.00
2017,12,10,17,50,4.00
2017,12,10,17,51,4.00
2017,12,10,17,52,4.00
2017,12,10,17,53,4.00
2017,12,10,17,54,4.10
2017,12,10,17,55,4.10
2017,12,10,17,56,4.10
2017,12,10,17,57,4.20
2017,12,10,17,58,4.20
2017,12,10,17,59,4.20
2017,12,10,18,00,4.20
2017,12,10,18,01,4.20
2017,12,10,18,02,4.20
2017,12,10,18,03,4.20
2017,12,10,18,04,4.20
2017,12,10,18,05,4.30
2017,12,10,18,06,4.30